sat.trackr.live / text

‹ back to catalog

STARLINK-1154

NORAD 45198 · 2020-012W

PAYLOAD ACTIVE UNKNOWN

§ Identity

Operator
Country
US
Launch date
2020-02-17
Launch site
AFETR
Launch vehicle
Mass (kg)
RCS (m²)

Purposes: comms

External: N2YO · Heavens-Above · Gunter

§ Orbital elements

Epoch: 2026-05-25T06:00:02.000160Z

Period
92.16 min
Inclination
53.0426°
Eccentricity
0.0000518
Mean motion
15.62501068 rev/d
Perigee alt
380.1 km
Apogee alt
380.8 km
Semi-major
6,758.6 km
B*
-4.0786e-4
RAAN
1.2470°
Arg perigee
73.4158°
Mean anomaly
28.5312°
Rev number
593

§ Raw data

STARLINK-11541 45198U 20012W   26145.25002315 -.00037338  00000+0 -40786-3 0  99912 45198  53.0426   1.2470 0000518  73.4158  28.5312 15.62501068  5937

JSON: /api/v1/satellites/45198 · /tle

For live sub-satellite position, see the globe view (requires WebGL).

§ Visibility from observer

Set your observer location to see the next 7 days of passes ≥ 10°. The values pass through the URL so the page stays shareable.

No JS? Fill the form by hand. The geolocation button needs JavaScript.